[Iaude] MPEC E192: 2017 BD230 [a=53.61,e=0.37,i=12.8,H=8.36]

mpec at cfa.harvard.edu mpec at cfa.harvard.edu
Fri Mar 15 10:57:03 EDT 2024


M.P.E.C. 2024-E192                               Issued 2024 March 15, 14:55 UT

     The Minor Planet Electronic Circulars contain information on unusual
         minor planets, routine data on comets and natural satellites,
         and occasional editorial announcements.  They are published
    on behalf of Division F of the International Astronomical Union by the
          Minor Planet Center, Smithsonian Astrophysical Observatory,
                          Cambridge, MA 02138, U.S.A.
			  
             Prepared using the Tamkin Foundation Computer Network

                              MPC at CFA.HARVARD.EDU
            URL https://www.minorplanetcenter.net/    ISSN 1523-6714

                                   2017 BD230                                   


Additional Observations:
     K17BN0D 4C2019 02 05.36684 10 10 54.82 +02 22 30.1          25.7 i1EE192T09
     K17BN0D 4C2019 02 05.38299 10 10 54.77 +02 22 30.6          25.0 i1EE192T09
     K17BN0D 4C2019 02 05.39635 10 10 54.71 +02 22 30.6          24.6 i1EE192T09
     K17BN0D 4C2019 02 05.40971 10 10 54.65 +02 22 31.1          24.8 i1EE192T09
     K17BN0D 4C2019 02 05.43397 10 10 54.57 +02 22 31.6          25.1 i1EE192T09
     K17BN0D 4C2019 03 03.28745 10 09 10.97 +02 32 47.6          24.3 z1EE192T09
     K17BN0D 4C2019 03 03.29758 10 09 10.94 +02 32 48.1          25.2 z1EE192T09
     K17BN0D 4C2019 03 03.32504 10 09 10.82 +02 32 48.9          24.8 z1EE192T09
     K17BN0D 4C2019 03 03.32771 10 09 10.79 +02 32 49.6          24.9 z1EE192T09
     K17BN0D 4C2019 04 05.34328 10 07 18.23 +02 47 10.1          26.2 r1EE192T09
     K17BN0D 4C2019 04 05.36539 10 07 18.16 +02 47 10.5          25.3 r1EE192T09
     K17BN0D 4C2019 04 05.37599 10 07 18.15 +02 47 10.6          25.6 r1EE192T09

Observer details:
T09 Subaru Telescope, Maunakea.  Observers H. Aihara, Y. AlSayyad, M. Ando, R.
    Armstrong, J. Bosch, E. Egami, H. Furusawa, J. Furusawa, S. Harasawa, Y.
    Harikane, B.-C. Hsieh, H. Ike, K. Ito, I. Iwata, T. Kodama, M. Koike, M.
    Kokubo, Y. Komiyama, X. Li, Y. Liang, Y.-T. Lin, R. H. Lupton, N. B. Lust,
    L. A. MacArthur, K. Mawatari, S. Mineo, H. Miyatake, S. Miyazaki, S. More,
    T. Morishima, H. Murayama, K. Nakajima, F. Nakata, A. J. Nishizawa, M.
    Oguri, N. Okab, Y. Okura, Y. Ono, K. Osato, M. Ouchi, Y.-C. Pan, A. A.
    Plazas MalagA, P. A. Price, S. L. Reed, E. S. Rykoff, T. Shibuya, M.
    Simunovic, M. A. Strauss, K. Sugimori, Y. Suto, N. Suzuki, M. Takada, Y.
    Takagi, T. Takata, S. Takita, M. Tanaka, S. Tang, D. S. Taranu, T. Terai,
    Y. To, E. L. Turner, H. Uchiyama, B. Vijarnwannaluk, C. Z. Waters, Y.
    Yamada, N. Yamamoto, T. Yamashita, H. Ikeda, N. Okabe, A. A. Plazas
    Malagon, Y. Toba.  Measurers A. Yamauchi, H. Fukuyama.  8.2-m f/2.0
    reflector + CCD(HSC).

Orbital elements:
2017 BD230                                                                      
Epoch 2024 Mar. 31.0 TT = JDT 2460400.5                 Alexandersen            
M  58.40213              (2000.0)            P               Q                  
n   0.00251087     Peri.  223.99594     +0.55834496     -0.82825728             
a  53.6109800      Node   192.31739     +0.80920964     +0.55630403             
e   0.3725786      Incl.   12.82055     +0.18284054     +0.06719896             
P 393              H    8.36          G   0.15           U   6                  
Residuals in seconds of arc
161223 T09  0.4+  0.0     170130 T09  0.1+  0.0     170304 T09  0.1+  0.1-
161223 T09  0.0   0.1+    170130 T09  0.1-  0.1+    170304 T09  0.0   0.1-
161223 T09  0.1-  0.1-    170130 T09  0.1-  0.5+    170306 T09  0.1+  0.1-
170102 T09  0.0   0.0     170130 T09  0.0   0.3+    170306 T09  0.0   0.2+
170102 T09  0.1-  0.1-    170130 T09  0.1-  0.0     170306 T09  0.2+  0.1-
170102 T09  0.1+  0.2-    170130 T09  0.3-  0.1+    170306 T09  0.2+  0.1-
170102 T09  0.0   0.2-    170202 T09  0.1-  0.0     170325 T09  0.1-  0.0
170102 T09  0.1-  0.1-    170202 T09  0.1+  0.1+    170325 T09  0.0   0.2-
170121 T09  0.3+  0.4+    170202 T09  0.0   0.1-    170325 T09  0.0   0.0
170121 T09  0.1+  0.1-    170202 T09  0.0   0.1-    190205 T09  0.0   0.1-
170121 T09  0.3+  0.2+    170202 T09  0.1-  0.0     190205 T09  0.2+  0.0
170121 T09  0.1-  0.0     170202 T09  0.1+  0.1-    190205 T09  0.1+  0.2-
170121 T09  0.1-  0.0     170223 T09  0.0   0.0     190205 T09  0.0   0.0
170121 T09  0.3-  0.2+    170223 T09  0.3+  0.2-    190205 T09  0.2+  0.0
170121 T09  0.2-  0.2+    170223 T09  0.0   0.0     190303 T09  0.1-  0.2-
170123 T09  0.4+  0.2+    170225 T09  0.2-  0.2-    190303 T09  0.0   0.1+
170123 T09  0.2+  0.1-    170225 T09  0.1-  0.3-    190303 T09  0.1-  0.1+
170123 T09  0.1-  0.2-    170225 T09  0.0   0.1-    190303 T09  0.4-  0.8+
170123 T09  0.1+  0.0     170225 T09  0.3-  0.0     190405 T09  0.1+  0.0
170123 T09  0.5-  0.2+    170225 T09  0.1+  0.1+    190405 T09  0.1-  0.2-
170123 T09  0.0   0.1+    170225 T09  0.0   0.1+    190405 T09  0.2+  0.3-
170123 T09  0.2+  0.0     170304 T09  0.3-  0.2+

Ephemeris:
2017 BD230               a,e,i = 53.61, 0.37, 13                 q = 33.6367
Date    TT    R. A. (2000) Decl.     Delta      r    Elong.  Phase     V
2024 02 14    10 30 41.2 +01 26 29  48.9390 49.8884   163.9     0.3    25.4
...
2024 02 29    10 29 43.1 +01 32 27  48.9198 49.9023   172.6     0.1    25.3
...
2024 03 08    10 29 12.3 +01 35 53  48.9373 49.9097   168.3     0.2    25.4
...
2024 03 14    10 28 49.8 +01 38 30  48.9631 49.9152   163.1     0.3    25.4
2024 03 15    10 28 46.2 +01 38 56  48.9684 49.9161   162.2     0.3    25.4
2024 03 16    10 28 42.5 +01 39 23  48.9740 49.9171   161.3     0.4    25.4
...
2024 03 22    10 28 21.4 +01 42 01  49.0136 49.9226   155.6     0.5    25.4
...
2024 03 30    10 27 55.2 +01 45 28  49.0817 49.9300   147.8     0.6    25.4
...
2024 04 14    10 27 14.2 +01 51 31  49.2519 49.9438   133.2     0.8    25.5

M. P. C. Staff               (C) Copyright 2024 MPC           M.P.E.C. 2024-E192





More information about the Iaude mailing list